Vertical_Velocity
-0 2 -7 -7 -4 -1 -0 3 -0 -4 -0 4 13 14 7 1 1 -0 -2 2 3 4 0 1 7 -2 4
-3 -1 1 10 -4 -6 3 3 -4 7 1 -5 -0 2 10 11 -5 -0 -3 -0 3 4 12 4 -1 11 10
-32 -0 -5 5 4 7 7 1 -4 3 3 -4 0 6 -12 3 9 5 4 8 -9 1 9 7 -1 10 12
-4 -16 -1 17 2 -5 -3 -2 -5 3 -1 -3 -3 -2 3 2 4 -1 6 0 16 10 40 6 19 8 1
-5 -4 -3 2 7 7 -13 -2 -1 -1 -3 0 -6 -9 -2 -1 -14 1 7 -8 19 17 6 6 25 8 -4
-4 -5 1 -1 3 0 -3 -2 -37 26 -7 -3 -8 -3 -1 1 -0 -3 1 -5 0 14 30 9 2 11 3
-8 7 -16 12 -0 -1 1 -3 -7 5 -0 -12 -2 -11 3 1 5 -0 -8 3 10 19 12 7 5 4 6
7 -5 -2 4 1 -1 0 -9 -9 1 6 -32 5 -6 -2 1 0 -2 2 4 3 8 11 7 6 5 12
5 6 -0 0 3 -2 -7 -4 -12 -5 -1 -7 -1 -6 -1 4 -2 -3 1 3 8 10 6 9 7 8 3
5 9 11 4 5 14 -0 -5 -2 -12 -1 -5 0 1 -3 -5 10 7 3 10 9 7 9 8 6 6 -0
-5 -1 4 2 2 3 -1 3 -3 -12 1 4 -7 2 3 0 13 2 8 11 6 7 9 9 9 2 -6
-5 -2 -1 -0 1 -1 -1 2 -1 -0 8 0 -1 1 10 -2 6 5 3 7 5 10 9 7 -4 -6 -1
-1 2 -1 -2 0 -1 -0 1 4 4 4 5 8 9 7 4 8 2 6 4 8 8 9 -2 -3 2 1
-1 1 -3 -0 2 2 3 5 3 2 5 8 8 8 8 3 -0 5 9 6 11 1 -3 -0 0 2 2
0 -1 1 2 5 5 5 4 3 6 8 9 7 7 3 5 8 8 3 -3 -1 2 1 1 1 0 1
0 -1 2 2 3 6 3 2 3 5 7 5 5 10 7 -1 -1 1 2 2 2 2 1 0 0 2 1
0 0 1 2 4 6 4 3 5 9 10 0 -5 1 5 2 -0 -0 -1 1 2 2 1 2 1 0 1
Height
2883 2882 2879 2877 2877 2876 2875 2874 2872 2874 2875 2874 2874 2874 2872 2873 2874 2877 2880 2882 2885 2885 2887 2889 2892 2896 2900
2868 2865 2863 2862 2859 2857 2856 2856 2855 2856 2856 2857 2857 2857 2856 2856 2856 2859 2862 2866 2869 2870 2871 2875 2877 2882 2882
2850 2850 2848 2846 2841 2840 2838 2838 2838 2837 2838 2839 2840 2839 2838 2838 2832 2841 2846 2849 2850 2854 2856 2858 2862 2864 2869
2834 2833 2833 2833 2828 2824 2821 2821 2820 2821 2821 2823 2823 2823 2823 2821 2822 2823 2829 2831 2835 2837 2840 2842 2846 2850 2855
2817 2816 2815 2813 2812 2810 2806 2804 2802 2803 2803 2804 2808 2809 2808 2808 2808 2808 2809 2813 2816 2819 2823 2826 2832 2835 2840
2803 2799 2798 2797 2796 2794 2791 2789 2785 2790 2787 2785 2791 2792 2793 2794 2797 2798 2797 2797 2801 2805 2809 2813 2817 2821 2826
2789 2787 2783 2784 2782 2780 2778 2776 2773 2775 2773 2770 2773 2775 2780 2781 2782 2783 2783 2783 2787 2790 2795 2798 2803 2808 2813
2778 2774 2772 2770 2769 2766 2763 2759 2759 2759 2761 2755 2759 2759 2762 2767 2768 2768 2769 2771 2775 2778 2783 2786 2791 2796 2801
2767 2763 2761 2758 2757 2753 2750 2747 2742 2743 2745 2745 2745 2747 2748 2752 2754 2756 2758 2760 2762 2764 2768 2774 2780 2785 2790
2755 2751 2748 2746 2744 2741 2738 2734 2731 2727 2731 2734 2734 2736 2736 2740 2741 2743 2744 2746 2750 2753 2758 2764 2770 2776 2779
2740 2737 2734 2732 2729 2727 2726 2722 2718 2716 2720 2722 2721 2724 2725 2725 2729 2730 2733 2736 2739 2744 2751 2756 2762 2766 2771
2731 2726 2721 2718 2717 2715 2713 2710 2707 2705 2707 2708 2708 2710 2713 2714 2717 2719 2721 2725 2731 2738 2745 2749 2753 2758 2765
2723 2716 2710 2706 2704 2702 2699 2697 2693 2692 2692 2693 2696 2698 2700 2703 2706 2709 2713 2719 2726 2733 2738 2742 2748 2753 2758
2714 2706 2701 2697 2695 2692 2689 2687 2684 2682 2683 2685 2687 2690 2692 2696 2700 2705 2711 2717 2723 2726 2732 2736 2741 2746 2751
2704 2697 2693 2689 2687 2685 2682 2681 2680 2680 2681 2683 2685 2688 2691 2696 2701 2705 2709 2714 2719 2723 2728 2732 2736 2740 2744
2697 2690 2685 2682 2681 2680 2679 2678 2680 2681 2683 2685 2687 2690 2693 2696 2701 2704 2708 2712 2716 2720 2723 2727 2730 2733 2736
2689 2683 2679 2677 2677 2677 2678 2679 2681 2683 2686 2686 2688 2691 2695 2698 2701 2703 2706 2709 2712 2715 2718 2721 2723 2725 2728